Flag for Germany Weather past 2 weeks in Landsberg am Lech, Bavaria, Germany

Now
32 °F

Snow. Passing clouds.


Feels Like: 24 °F
Forecast: 29 / 35 °F
Wind: 10 mph from West

Location: Landsberg

Current Time: Mar 4, 2015 at 4:58:08 AM

Latest Report: Mar 4, 2015 at 4:20 AM


Visibility: 1 mi

Pressure: 30.18 "Hg

Humidity: 100%

Dew point: 32 °F

Location of Landsberg am LechLocation

Historic Weather in Landsberg am Lech — Graph

°F

Landsberg am Lech temperature yesterday

Maximum temperature yesterday: 45 °F (at 3:20 PM)
Minimum temperature yesterday: 32 °F (at 2:20 AM)
Average temperature yesterday: 37 °F

Past Weeks' High & Low Weather Summary

 TemperatureHumidityPressure
High52 °F (Feb 20, 2:20 PM)100% (Feb 17, 4:20 AM)30.66 "Hg (Feb 17, 4:20 AM)
Low18 °F (Feb 17, 7:20 AM)28% (Feb 20, 2:20 PM)29.47 "Hg (Feb 21, 1:20 PM)
Average32 °F83%30.00 "Hg
* Reported Feb 17 3:20 AM — Mar 4 3:20 AM, Landsberg am Lech, Weather by CustomWeather, © 2015

Note: Actual official high and low records may vary slightly from our data, if they occured in-between our weather recording intervals... More about our weather records

Advertising

Landsberg am Lech weather history for previous 24 hours

 ConditionsComfort  
Time TempWeatherWind HumidityBarometerVisibility
3:20 AM
Wed, Mar 4
37 °FLight rain. Passing clouds.22 mph87%30.12 "HgN/A
2:20 AM39 °FLight rain. Partly cloudy.18 mph70%30.12 "HgN/A
1:20 AM41 °FPassing clouds.17 mph61%30.12 "HgN/A
12:20 AM41 °FPassing clouds.14 mph61%30.09 "HgN/A
11:20 PM
Tue, Mar 3
39 °FPassing clouds.12 mph65%30.12 "HgN/A
10:20 PM39 °FPassing clouds.9 mph61%30.12 "HgN/A
9:20 PM37 °FPartly cloudy.9 mph65%30.12 "HgN/A
8:20 PM37 °FPassing clouds.9 mph70%30.12 "HgN/A
7:20 PM37 °FPassing clouds.7 mph65%30.12 "HgN/A
6:20 PM41 °FPassing clouds.3 mph57%30.12 "HgN/A
5:20 PM43 °FScattered clouds.8 mph53%30.12 "HgN/A
4:20 PM45 °FPassing clouds.12 mph46%30.12 "HgN/A
3:20 PM45 °FPassing clouds.13 mph46%30.15 "HgN/A
2:20 PM43 °FPassing clouds.12 mph46%30.15 "HgN/A
1:20 PM43 °FPassing clouds.14 mph49%30.18 "HgN/A
12:20 PM41 °FPassing clouds.14 mph53%30.21 "HgN/A
11:20 AM41 °FPassing clouds.16 mph53%30.21 "HgN/A
10:20 AM37 °FPassing clouds.16 mph60%30.21 "HgN/A
9:20 AM36 °FPassing clouds.12 mph70%30.21 "HgN/A
8:20 AM34 °FPartly sunny.13 mph75%30.18 "HgN/A
7:20 AM32 °FPartly sunny.12 mph80%30.18 "HgN/A
6:20 AM32 °FPassing clouds.9 mph80%30.15 "HgN/A
5:20 AM32 °FPassing clouds.10 mph80%30.15 "HgN/A
4:20 AM32 °FPassing clouds.9 mph75%30.15 "HgN/A
Weather by CustomWeather, © 2015

See weather overviewHow to use our weather pages